[[{"header":{"parameterUnit":"m.s-1","parameterCategory":2,"la1":30.2991,"la2":30.254,"lo1":-89.0895,"lo2":-89.0444,"dy":0.0017,"dx":0.0017,"nx":28,"ny":28,"refTime":"2025-04-30T21:00:00:Z","depth":"0","parameterNumber":2,"parameterNumberName":"U-component_of_CURRENTS"},"data":[0,0,0,0,0,0,0,0,0,0,0,0,0,0,0,0,0,0,0,0,0,0,0,0,0,0,0,0,0,0,0,0,0,0,0,0,0,0,0,0,0,0,0,0,0,0,0,0,0,0,0,0,0,0,0,0,0,0,-0.2479,-0.248,0,-0.2527,-0.2527,-0.2528,-0.2489,-0.2487,-0.2486,-0.2484,-0.2468,-0.2469,-0.247,0,0,0,0,0,0,0,0,0,0,0,0,0,-0.2408,-0.2409,-0.2479,-0.248,-0.2481,-0.2527,-0.2527,-0.2528,-0.2489,-0.2487,-0.2485,-0.2484,-0.2468,-0.2469,-0.247,0,0,0,0,0,0,0,0,0,0,0,0,0,-0.2444,-0.2409,-0.2479,-0.2468,-0.2467,-0.2527,-0.2527,-0.2528,-0.2489,-0.2487,-0.2485,-0.2483,-0.2467,-0.2469,-0.247,-0.2526,0,0,-0.2475,-0.2476,0,0,0,0,0,0,0,0,-0.2442,-0.2447,-0.2469,-0.2469,-0.2468,-0.2501,-0.2496,-0.2525,-0.249,-0.248,-0.2484,-0.2482,-0.2476,-0.2476,-0.249,-0.2525,-0.2524,-0.2475,-0.2476,-0.2477,-0.2477,0,0,0,0,0,0,0,-0.2439,-0.2445,-0.2497,-0.247,-0.2469,-0.2478,-0.248,-0.2502,-0.2488,-0.248,-0.2478,-0.2486,-0.2474,-0.2488,-0.2489,-0.2524,-0.2475,-0.2476,-0.2477,-0.2478,-0.2591,-0.2593,0,0,0,0,0,0,-0.2436,-0.2442,-0.2495,-0.2498,-0.245,-0.2481,-0.2484,-0.2492,-0.2489,-0.2487,-0.2488,-0.2484,-0.2487,-0.2487,-0.2488,-0.253,-0.2477,-0.2478,-0.2479,-0.2589,-0.2592,-0.2594,0,0,0,0,0,0,-0.2434,-0.244,-0.2494,-0.2472,-0.2479,-0.2485,-0.2494,-0.2494,-0.2497,-0.2496,-0.2492,-0.249,-0.2485,-0.2486,-0.2512,-0.253,-0.2479,-0.248,-0.2587,-0.259,-0.2593,-0.263,0,0,0,0,0,0,-0.2432,-0.244,-0.244,-0.2472,-0.2481,-0.2533,-0.2497,-0.2496,-0.2507,-0.2502,-0.2497,-0.2494,-0.2483,-0.251,-0.2513,-0.2531,-0.2481,-0.2584,-0.2588,-0.2592,-0.2626,-0.2634,-0.264,0,0,0,0,0,-0.2429,-0.2447,-0.2439,-0.2446,-0.2482,-0.2535,-0.2541,-0.2535,-0.2509,-0.2526,-0.2521,-0.2493,-0.2537,-0.2513,-0.2517,-0.2535,-0.2582,-0.2587,-0.2591,-0.2622,-0.2632,-0.264,0,0,0,0,0,0,-0.2414,-0.2446,-0.2438,-0.2461,-0.2495,-0.2528,-0.2542,-0.254,-0.2553,-0.2539,-0.2524,-0.2523,-0.2554,-0.255,-0.2524,-0.2583,-0.2554,-0.256,-0.2577,-0.2586,-0.2593,-0.2574,-0.2483,0,0,0,0,0,-0.2412,-0.2428,-0.2466,-0.2483,-0.2501,-0.2521,-0.2537,-0.2541,-0.256,-0.2561,-0.2562,-0.2565,-0.2583,-0.2585,-0.2605,-0.2639,-0.2594,-0.2655,-0.2662,-0.2668,-0.2658,-0.2606,-0.2606,-0.2609,-0.2609,-0.2609,0,0,-0.2408,-0.2428,-0.2435,-0.248,-0.25,-0.2547,-0.2524,-0.2559,-0.2589,-0.256,-0.2593,-0.2596,-0.2602,-0.2638,-0.2651,-0.263,-0.2648,-0.2674,-0.2679,-0.2665,-0.261,-0.2609,-0.2608,-0.2613,-0.2612,-0.2611,0,0,-0.2429,-0.2431,-0.246,-0.2496,-0.2538,-0.2561,-0.2572,-0.2614,-0.2617,-0.2662,-0.2645,-0.2651,-0.2692,-0.2687,-0.2691,-0.2754,-0.2694,-0.2772,-0.2783,-0.2733,-0.273,-0.2728,-0.2674,-0.2667,-0.2767,-0.2767,-0.2767,0,-0.2421,-0.246,-0.2478,-0.2527,-0.2552,-0.2569,-0.2615,-0.2641,-0.2683,-0.268,-0.2676,-0.2704,-0.271,-0.2724,-0.2752,-0.2765,-0.2726,-0.2743,-0.2737,-0.2733,-0.273,-0.2676,-0.2667,-0.2769,-0.2769,-0.2769,-0.2769,0,-0.2473,-0.2505,-0.253,-0.2588,-0.2624,-0.2667,-0.2709,-0.2732,-0.2735,-0.2746,-0.2761,-0.2768,-0.2767,-0.2786,-0.2792,-0.2784,-0.2762,-0.2753,-0.2702,-0.2731,-0.2673,-0.2663,-0.2773,-0.2772,-0.2771,-0.2771,0,0,-0.2446,-0.2545,-0.255,-0.258,-0.2655,-0.2688,-0.2739,-0.2776,-0.2777,-0.2807,-0.28,-0.2838,-0.281,-0.2815,-0.2812,-0.2781,-0.2738,-0.2764,-0.276,-0.2688,-0.262,-0.2519,-0.2497,-0.2722,-0.272,-0.2719,-0.2589,0,-0.2474,-0.2561,-0.2606,-0.2677,-0.2721,-0.2754,-0.2795,-0.2825,-0.2834,-0.2837,-0.2821,-0.2826,-0.2831,-0.2823,-0.2795,-0.2757,-0.2712,-0.2773,-0.2622,-0.2617,-0.2504,-0.2482,-0.2387,-0.2255,-0.2578,-0.2577,-0.2575,0,-0.25,-0.2554,-0.2631,-0.2703,-0.2723,-0.2767,-0.2795,-0.2837,-0.2847,-0.2848,-0.2833,-0.2822,-0.2797,-0.2793,-0.2702,-0.274,-0.2683,-0.2644,-0.2638,-0.2517,-0.2496,-0.228,-0.2223,-0.2215,-0.2559,-0.256,-0.2561,0,-0.2453,-0.2559,-0.261,-0.2643,-0.2739,-0.2757,-0.2794,-0.2823,-0.2834,-0.284,-0.2827,-0.28,-0.2765,-0.2705,-0.2631,-0.2664,-0.2508,-0.2536,-0.2383,-0.2375,-0.2248,-0.2231,-0.2139,-0.2447,-0.2447,-0.2447,-0.2448,0,-0.2454,-0.2489,-0.2589,-0.2619,-0.2653,-0.273,-0.2747,-0.2778,-0.2803,-0.2787,-0.2815,-0.2769,-0.2739,-0.2654,-0.2603,-0.2439,-0.247,-0.2362,-0.2324,-0.2261,-0.2247,-0.2198,-0.2233,-0.2443,-0.2444,-0.2445,-0.2445,0,-0.2387,-0.2466,-0.2517,-0.2611,-0.2635,-0.265,-0.2716,-0.2716,-0.2763,-0.2739,-0.2737,-0.2722,-0.2607,-0.255,-0.243,-0.2371,-0.22,-0.2185,-0.2111,-0.2066,-0.1928,-0.1969,-0.1823,-0.1775,-0.2,-0.1997,-0.1994,0,-0.2359,-0.2384,-0.2476,-0.2489,-0.2529,-0.2571,-0.2586,-0.2669,-0.267,-0.2682,-0.2647,-0.2566,-0.2446,-0.2244,-0.2133,-0.1985,-0.2029,-0.1834,-0.1879,-0.1878,-0.1898,-0.1947,-0.1924,-0.1734,-0.173,-0.1726,-0.1723,0,-0.2279,-0.2309,-0.2346,-0.238,-0.2405,-0.2437,-0.2472,-0.2479,-0.2548,-0.2519,-0.2435,-0.2345,-0.2166,-0.1954,-0.1797,-0.1718,-0.1796,-0.1747,-0.1759,-0.1679,-0.1711,-0.1661,-0.1878,-0.1688,-0.1691,-0.1694,-0.1696,-0.1697,-0.2183,-0.218,-0.2221,-0.2235,-0.2266,-0.2273,-0.2235,-0.2271,-0.2242,-0.2155,-0.2185,-0.1979,-0.1855,-0.1601,-0.1522,-0.1398,-0.1493,-0.1384,-0.1432,-0.1481,-0.1435,-0.1567,-0.133,-0.1332,-0.1333,-0.1334,-0.1335,0,-0.2047,-0.2059,-0.2068,-0.208,-0.2046,-0.2117,-0.2118,-0.2038,-0.193,-0.1867,-0.175,-0.1551,-0.1376,-0.1301,-0.1185,-0.1119,-0.1134,-0.1122,-0.1196,-0.1185,-0.1291,-0.128,-0.1003,-0.1003,-0.1003,-0.1003,-0.1003,-0.1003,-0.1976,-0.1934,-0.1942,-0.1848,-0.1847,-0.1747,-0.1708,-0.1603,-0.1516,-0.128,-0.1128,-0.1044,-0.1054,-0.1138,-0.107,-0.1023,-0.1045,-0.0994,-0.1049,-0.1169,-0.1199,-0.1229,-0.1226,-0.0942,-0.0942,-0.0902,-0.0901,-0.0901]},{"header":{"parameterUnit":"m.s-1","parameterCategory":2,"la1":30.2991,"la2":30.254,"lo1":-89.0895,"lo2":-89.0444,"dy":0.0017,"dx":0.0017,"nx":28,"ny":28,"refTime":"2025-04-30T21:00:00:Z","depth":"0","parameterNumber":3,"parameterNumberName":"V-component_of_CURRENTS"},"data":[0,0,0,0,0,0,0,0,0,0,0,0,0,0,0,0,0,0,0,0,0,0,0,0,0,0,0,0,0,0,0,0,0,0,0,0,0,0,0,0,0,0,0,0,0,0,0,0,0,0,0,0,0,0,0,0,0,0,-0.0248,-0.0247,0,-0.0164,-0.0163,-0.0161,-0.0101,-0.0101,-0.01,-0.01,0.0041,0.0045,0.0048,0,0,0,0,0,0,0,0,0,0,0,0,0,-0.0296,-0.0296,-0.0248,-0.0247,-0.0246,-0.0164,-0.0163,-0.0161,-0.0101,-0.0101,-0.01,-0.01,0.004,0.0044,0.0048,0,0,0,0,0,0,0,0,0,0,0,0,0,-0.0248,-0.0296,-0.0248,-0.0208,-0.0203,-0.0164,-0.0163,-0.0161,-0.0101,-0.0101,-0.01,-0.01,0.0039,0.0044,0.0049,0.0071,0,0,0.0065,0.0067,0,0,0,0,0,0,0,0,-0.0251,-0.0246,-0.0215,-0.021,-0.0206,-0.0144,-0.0128,-0.0081,-0.0101,-0.0138,-0.01,-0.0099,-0.0017,-0.0007,0.001,0.0078,0.0084,0.0065,0.0068,0.0071,0.0072,0,0,0,0,0,0,0,-0.0255,-0.0249,-0.0213,-0.0214,-0.0208,-0.0173,-0.0166,-0.0118,-0.0079,-0.0135,-0.0131,-0.0124,-0.0014,0.0004,0.0013,0.0086,0.0065,0.007,0.0073,0.0075,0.0217,0.0217,0,0,0,0,0,0,-0.0273,-0.0253,-0.0215,-0.021,-0.023,-0.0173,-0.0165,-0.0163,-0.008,-0.0068,-0.0125,-0.0122,-0.0005,0.0007,0.0019,0.0068,0.0071,0.0075,0.0078,0.0216,0.0217,0.0218,0,0,0,0,0,0,-0.0274,-0.027,-0.0219,-0.0231,-0.0222,-0.0173,-0.0171,-0.0161,-0.0144,-0.0074,-0.006,-0.0118,-0.0004,0.0011,0.0064,0.0073,0.0078,0.0083,0.0215,0.0216,0.0217,0.0155,0,0,0,0,0,0,-0.0276,-0.0271,-0.0277,-0.0232,-0.0222,-0.0204,-0.0171,-0.016,-0.0142,-0.0137,-0.0063,-0.005,-0.0002,0.0056,0.0069,0.008,0.0087,0.0215,0.0216,0.0217,0.0156,0.0153,0.0151,0,0,0,0,0,-0.0278,-0.0293,-0.0278,-0.0274,-0.0232,-0.0204,-0.0196,-0.0158,-0.0142,-0.0139,-0.0083,-0.0052,0.0074,0.0061,0.0076,0.0089,0.0214,0.0215,0.0217,0.0157,0.0154,0.0151,0,0,0,0,0,0,-0.0317,-0.0287,-0.027,-0.0275,-0.0245,-0.0195,-0.0192,-0.0165,-0.0119,-0.0114,-0.0046,-0.0028,0.0022,0.0064,0.0048,0.0135,0.015,0.0155,0.0099,0.0097,0.0095,0.0078,0.0091,0,0,0,0,0,-0.033,-0.0332,-0.0293,-0.0297,-0.0286,-0.024,-0.0225,-0.02,-0.0154,-0.0135,-0.0081,-0.0019,0.004,0.0073,0.0126,0.0171,0.0215,0.0191,0.0189,0.0186,0.0185,0.0257,0.026,0.0222,0.0222,0.0222,0,0,-0.0346,-0.033,-0.0331,-0.0305,-0.0279,-0.0268,-0.023,-0.0215,-0.0195,-0.0126,-0.0084,-0.0029,0.0049,0.0101,0.0128,0.0138,0.022,0.0188,0.0185,0.0186,0.0259,0.0262,0.0266,0.0223,0.0223,0.0223,0,0,-0.0384,-0.0366,-0.0381,-0.036,-0.0331,-0.0297,-0.0297,-0.0249,-0.0218,-0.0175,-0.0115,-0.0055,0.0025,0.0089,0.0131,0.0149,0.0201,0.0165,0.0146,0.0215,0.0218,0.0222,0.0276,0.0285,0.0168,0.0168,0.0168,0,-0.0405,-0.0415,-0.038,-0.0387,-0.0371,-0.0315,-0.0319,-0.0278,-0.0217,-0.0184,-0.0171,-0.0035,0.0023,0.0107,0.0113,0.0143,0.0184,0.0146,0.021,0.0215,0.022,0.0274,0.0285,0.0165,0.0166,0.0166,0.0166,0,-0.045,-0.0454,-0.0461,-0.0445,-0.0422,-0.0418,-0.0359,-0.0328,-0.0283,-0.0233,-0.0153,-0.0069,0.0014,0.0044,0.0084,0.0153,0.017,0.0192,0.021,0.0219,0.0277,0.0289,0.0161,0.0162,0.0163,0.0164,0,0,-0.0505,-0.0497,-0.0497,-0.0497,-0.0453,-0.0439,-0.04,-0.0342,-0.0307,-0.0239,-0.0184,-0.0082,-0.0035,0.0016,0.0081,0.0142,0.0207,0.0173,0.0178,0.0214,0.035,0.0379,0.0395,0.0236,0.0238,0.024,0.0373,0,-0.0548,-0.0583,-0.0552,-0.0559,-0.0567,-0.0496,-0.0461,-0.0397,-0.0327,-0.0259,-0.0157,-0.0085,-0.0044,-0.0004,0.0064,0.0178,0.0237,0.0168,0.0347,0.0353,0.0368,0.041,0.0438,0.0561,0.0385,0.0388,0.0389,0,-0.06,-0.0614,-0.0645,-0.0614,-0.0608,-0.0596,-0.052,-0.048,-0.0364,-0.0307,-0.0215,-0.0134,-0.002,0.0003,0.0192,0.0144,0.0234,0.0315,0.0323,0.038,0.0405,0.0528,0.059,0.0706,0.0408,0.0407,0.0405,0,-0.0664,-0.0668,-0.0697,-0.0691,-0.0652,-0.0637,-0.0601,-0.0502,-0.0453,-0.0338,-0.0286,-0.0147,-0.006,0.0065,0.0233,0.0214,0.0436,0.0436,0.0547,0.0549,0.0626,0.0632,0.0812,0.0557,0.0557,0.0556,0.0556,0,-0.0725,-0.074,-0.0734,-0.0752,-0.0762,-0.0704,-0.0677,-0.0616,-0.0513,-0.0438,-0.0323,-0.0223,-0.004,0.0114,0.0236,0.044,0.0446,0.0555,0.0595,0.0604,0.0606,0.0752,0.0777,0.0561,0.056,0.0559,0.0559,0,-0.0794,-0.0792,-0.0823,-0.0807,-0.0801,-0.081,-0.0744,-0.0708,-0.0608,-0.0506,-0.047,-0.0263,-0.0051,0.0128,0.0364,0.0463,0.0713,0.0701,0.0691,0.0726,0.0913,0.0932,0.1133,0.1199,0.084,0.0841,0.0843,0,-0.0832,-0.0863,-0.0882,-0.0901,-0.09,-0.0894,-0.0874,-0.0776,-0.0721,-0.051,-0.0459,-0.0232,-0.0033,0.0311,0.0517,0.0741,0.0815,0.0884,0.0852,0.0944,0.0995,0.0999,0.104,0.093,0.0932,0.0934,0.0935,0,-0.0899,-0.091,-0.0938,-0.0988,-0.0995,-0.0981,-0.0941,-0.0903,-0.0748,-0.0618,-0.0387,-0.0209,0.0127,0.043,0.0697,0.0822,0.0959,0.0922,0.1041,0.1102,0.11,0.1175,0.0805,0.095,0.0948,0.0947,0.0947,0.0946,-0.0938,-0.0982,-0.1021,-0.106,-0.1071,-0.1042,-0.0986,-0.0883,-0.0746,-0.0455,-0.0338,0.0034,0.0355,0.0755,0.0884,0.1149,0.1099,0.123,0.1252,0.1254,0.1303,0.095,0.1119,0.1119,0.1118,0.1118,0.1118,0,-0.0977,-0.1025,-0.1078,-0.111,-0.1118,-0.1099,-0.0999,-0.0865,-0.0646,-0.034,-0.0073,0.0424,0.0744,0.1031,0.1341,0.1478,0.149,0.1546,0.1572,0.1603,0.1332,0.1321,0.1513,0.1513,0.1513,0.1512,0.1512,0.1512,-0.0999,-0.1067,-0.1099,-0.1133,-0.1139,-0.1051,-0.0963,-0.071,-0.0444,0.0077,0.0482,0.0754,0.1073,0.1464,0.1754,0.1777,0.1897,0.1875,0.1939,0.1757,0.1729,0.1702,0.1701,0.197,0.1971,0.221,0.2212,0.2214]}],[{"header":{"parameterUnit":"m.s-1","parameterCategory":2,"la1":30.2991,"la2":30.254,"lo1":-89.0895,"lo2":-89.0444,"dy":0.0017,"dx":0.0017,"nx":28,"ny":28,"refTime":"2025-04-30T21:00:00:Z","depth":"2","parameterNumber":2,"parameterNumberName":"U-component_of_CURRENTS"},"data":[0,0,0,0,0,0,0,0,0,0,0,0,0,0,0,0,0,0,0,0,0,0,0,0,0,0,0,0,0,0,0,0,0,0,0,0,0,0,0,0,0,0,0,0,0,0,0,0,0,0,0,0,0,0,0,0,0,0,-0.2273,-0.2273,0,-0.2308,-0.2308,-0.2309,-0.228,-0.2279,-0.2278,-0.2277,-0.2258,-0.2259,-0.2259,0,0,0,0,0,0,0,0,0,0,0,0,0,-0.2213,-0.2214,-0.2273,-0.2273,-0.2274,-0.2308,-0.2308,-0.2309,-0.228,-0.2279,-0.2277,-0.2276,-0.2258,-0.2258,-0.2259,0,0,0,0,0,0,0,0,0,0,0,0,0,-0.2241,-0.2214,-0.2273,-0.2265,-0.2265,-0.2308,-0.2309,-0.2309,-0.228,-0.2279,-0.2277,-0.2275,-0.2258,-0.2258,-0.2259,-0.2297,0,0,-0.2262,-0.2262,0,0,0,0,0,0,0,0,-0.224,-0.2243,-0.2265,-0.2265,-0.2265,-0.2289,-0.2281,-0.2303,-0.2281,-0.2273,-0.2277,-0.2275,-0.2266,-0.2266,-0.2275,-0.2296,-0.2295,-0.2262,-0.2262,-0.2262,-0.2263,0,0,0,0,0,0,0,-0.2238,-0.2242,-0.2285,-0.2266,-0.2266,-0.2271,-0.2273,-0.2285,-0.2276,-0.2273,-0.2272,-0.2279,-0.2265,-0.2274,-0.2274,-0.2295,-0.2262,-0.2262,-0.2263,-0.2263,-0.2346,-0.2347,0,0,0,0,0,0,-0.2237,-0.224,-0.2284,-0.2287,-0.225,-0.2273,-0.2275,-0.2282,-0.2277,-0.2275,-0.228,-0.2277,-0.2273,-0.2273,-0.2273,-0.2311,-0.2262,-0.2263,-0.2264,-0.2344,-0.2346,-0.2348,0,0,0,0,0,0,-0.2235,-0.224,-0.2283,-0.2265,-0.2271,-0.2276,-0.2284,-0.2284,-0.2289,-0.2283,-0.2279,-0.2285,-0.2272,-0.2272,-0.229,-0.231,-0.2263,-0.2264,-0.2342,-0.2345,-0.2347,-0.2391,0,0,0,0,0,0,-0.2234,-0.224,-0.2242,-0.2265,-0.2272,-0.2314,-0.2286,-0.2285,-0.2296,-0.2293,-0.2286,-0.2283,-0.2271,-0.229,-0.2291,-0.231,-0.2265,-0.234,-0.2343,-0.2346,-0.2387,-0.2395,-0.2401,0,0,0,0,0,-0.2231,-0.2246,-0.2242,-0.2247,-0.2275,-0.2315,-0.2319,-0.2316,-0.2298,-0.2312,-0.2307,-0.2283,-0.2311,-0.2292,-0.2293,-0.2313,-0.2338,-0.2342,-0.2346,-0.2384,-0.2393,-0.2401,0,0,0,0,0,0,-0.222,-0.2246,-0.2241,-0.2261,-0.2287,-0.231,-0.2322,-0.2322,-0.2331,-0.2323,-0.2307,-0.2305,-0.233,-0.2323,-0.2302,-0.2349,-0.2321,-0.2325,-0.2349,-0.2358,-0.2365,-0.2349,-0.2265,0,0,0,0,0,-0.222,-0.2234,-0.2263,-0.2278,-0.2292,-0.2307,-0.232,-0.2325,-0.2338,-0.2339,-0.2338,-0.234,-0.2352,-0.2353,-0.2365,-0.2391,-0.235,-0.2406,-0.2413,-0.2419,-0.2409,-0.2368,-0.2369,-0.2361,-0.2361,-0.2361,0,0,-0.2219,-0.2234,-0.2241,-0.2276,-0.2291,-0.2326,-0.2311,-0.234,-0.2363,-0.2338,-0.2364,-0.2367,-0.2366,-0.2395,-0.2405,-0.2387,-0.2403,-0.2424,-0.2428,-0.2415,-0.2372,-0.2372,-0.2372,-0.2363,-0.2363,-0.2362,0,0,-0.2234,-0.2239,-0.2261,-0.2289,-0.2323,-0.2339,-0.235,-0.2383,-0.2388,-0.2423,-0.2409,-0.2416,-0.2445,-0.244,-0.2442,-0.2495,-0.2444,-0.2511,-0.2526,-0.2487,-0.2486,-0.2485,-0.2436,-0.243,-0.2509,-0.2509,-0.2509,0,-0.2229,-0.2257,-0.2275,-0.2311,-0.233,-0.2347,-0.2381,-0.2403,-0.2436,-0.2438,-0.2436,-0.2459,-0.2461,-0.2473,-0.2498,-0.2506,-0.2474,-0.2491,-0.2492,-0.249,-0.2487,-0.2438,-0.2431,-0.2512,-0.2511,-0.2511,-0.2511,0,-0.2266,-0.229,-0.2309,-0.2352,-0.2382,-0.2414,-0.245,-0.2472,-0.248,-0.2491,-0.2509,-0.2513,-0.2514,-0.2531,-0.2534,-0.2533,-0.2513,-0.2505,-0.2462,-0.249,-0.2437,-0.2429,-0.2515,-0.2515,-0.2514,-0.2513,0,0,-0.2243,-0.2318,-0.2321,-0.2343,-0.2403,-0.2428,-0.2472,-0.2505,-0.2512,-0.2541,-0.2541,-0.2573,-0.2558,-0.2559,-0.2559,-0.2537,-0.2506,-0.2524,-0.2521,-0.246,-0.2411,-0.2316,-0.2297,-0.2498,-0.2497,-0.2496,-0.238,0,-0.2259,-0.2321,-0.2358,-0.241,-0.2441,-0.2473,-0.2509,-0.2539,-0.2555,-0.2565,-0.2558,-0.2568,-0.2574,-0.2573,-0.2554,-0.2522,-0.2487,-0.2538,-0.2406,-0.2402,-0.23,-0.2285,-0.2144,-0.2021,-0.2371,-0.237,-0.2369,0,-0.2272,-0.2312,-0.2366,-0.2424,-0.244,-0.2476,-0.2508,-0.2546,-0.2567,-0.2577,-0.2575,-0.2571,-0.2557,-0.2555,-0.2481,-0.2516,-0.2467,-0.2434,-0.2428,-0.2312,-0.229,-0.2051,-0.1992,-0.2354,-0.2355,-0.2356,-0.2357,0,-0.2228,-0.2308,-0.2343,-0.2368,-0.2446,-0.2466,-0.2502,-0.2538,-0.2553,-0.2575,-0.2572,-0.2558,-0.2535,-0.2486,-0.2426,-0.2454,-0.2325,-0.2346,-0.2205,-0.2197,-0.2035,-0.2014,-0.2271,-0.2271,-0.2272,-0.2272,-0.2272,0,-0.2217,-0.2241,-0.2325,-0.2345,-0.2373,-0.2442,-0.2464,-0.2498,-0.2533,-0.2527,-0.2565,-0.2532,-0.2517,-0.2449,-0.2404,-0.2261,-0.2294,-0.2187,-0.2153,-0.2049,-0.2032,-0.2292,-0.2296,-0.2268,-0.2269,-0.2269,-0.227,0,-0.215,-0.2215,-0.225,-0.233,-0.2353,-0.2368,-0.2435,-0.244,-0.2497,-0.2486,-0.2491,-0.2494,-0.2402,-0.2358,-0.226,-0.2203,-0.21,-0.2039,-0.1914,-0.1868,-0.2008,-0.2017,-0.1871,-0.1867,-0.1863,-0.186,-0.1857,0,-0.2118,-0.2133,-0.2209,-0.2221,-0.2254,-0.2296,-0.2313,-0.2399,-0.2402,-0.2436,-0.2406,-0.2354,-0.2255,-0.2085,-0.1983,-0.1849,-0.1955,-0.1663,-0.1689,-0.1981,-0.1964,-0.1978,-0.1991,-0.1495,-0.149,-0.1486,-0.1482,0,-0.2035,-0.2062,-0.2087,-0.2114,-0.2138,-0.2165,-0.2202,-0.2206,-0.2282,-0.2271,-0.2209,-0.214,-0.1992,-0.1777,-0.1641,-0.1563,-0.1681,-0.1567,-0.1872,-0.1627,-0.1619,-0.1605,-0.1631,-0.1442,-0.1446,-0.1449,-0.1451,-0.1453,-0.1946,-0.1934,-0.1964,-0.1973,-0.2004,-0.2005,-0.1969,-0.2003,-0.1983,-0.192,-0.1963,-0.1782,-0.1732,-0.1406,-0.1311,-0.1249,-0.1371,-0.133,-0.1347,-0.1368,-0.1353,-0.134,-0.1107,-0.1109,-0.1111,-0.1113,-0.1114,0,-0.1815,-0.1817,-0.1818,-0.1818,-0.178,-0.1857,-0.1857,-0.1777,-0.1681,-0.1647,-0.1558,-0.1301,-0.1154,-0.1109,-0.0937,-0.0908,-0.0938,-0.0889,-0.0939,-0.0977,-0.1011,-0.0983,-0.0636,-0.0635,-0.0634,-0.0632,0,0,-0.1745,-0.1693,-0.1691,-0.1585,-0.1584,-0.1481,-0.1447,-0.135,-0.128,-0.1112,-0.0999,-0.1049,-0.1034,-0.0817,-0.0789,-0.0679,-0.0823,-0.0643,-0.1023,-0.1117,-0.115,-0.1256,-0.1253,0,0,0,0,0]},{"header":{"parameterUnit":"m.s-1","parameterCategory":2,"la1":30.2991,"la2":30.254,"lo1":-89.0895,"lo2":-89.0444,"dy":0.0017,"dx":0.0017,"nx":28,"ny":28,"refTime":"2025-04-30T21:00:00:Z","depth":"2","parameterNumber":3,"parameterNumberName":"V-component_of_CURRENTS"},"data":[0,0,0,0,0,0,0,0,0,0,0,0,0,0,0,0,0,0,0,0,0,0,0,0,0,0,0,0,0,0,0,0,0,0,0,0,0,0,0,0,0,0,0,0,0,0,0,0,0,0,0,0,0,0,0,0,0,0,-0.0335,-0.0334,0,-0.0265,-0.0264,-0.0263,-0.0208,-0.0208,-0.0207,-0.0207,-0.0093,-0.009,-0.0087,0,0,0,0,0,0,0,0,0,0,0,0,0,-0.0381,-0.0381,-0.0335,-0.0334,-0.0333,-0.0265,-0.0264,-0.0263,-0.0208,-0.0208,-0.0207,-0.0207,-0.0093,-0.009,-0.0087,0,0,0,0,0,0,0,0,0,0,0,0,0,-0.034,-0.0381,-0.0335,-0.0299,-0.0295,-0.0265,-0.0264,-0.0262,-0.0208,-0.0208,-0.0207,-0.0206,-0.0095,-0.0091,-0.0087,-0.0074,0,0,-0.0075,-0.0073,0,0,0,0,0,0,0,0,-0.0343,-0.0338,-0.0305,-0.0301,-0.0297,-0.0246,-0.0238,-0.0198,-0.0208,-0.024,-0.0207,-0.0206,-0.0141,-0.0133,-0.012,-0.0069,-0.0064,-0.0074,-0.0072,-0.007,-0.0069,0,0,0,0,0,0,0,-0.0346,-0.0341,-0.0306,-0.0304,-0.0299,-0.0272,-0.0266,-0.023,-0.0193,-0.0237,-0.0233,-0.0228,-0.0138,-0.0124,-0.0117,-0.0063,-0.0074,-0.0071,-0.0068,-0.0067,0.0029,0.0029,0,0,0,0,0,0,-0.036,-0.0344,-0.0308,-0.0304,-0.032,-0.0272,-0.0265,-0.0262,-0.0194,-0.0184,-0.0228,-0.0225,-0.0131,-0.0122,-0.0113,-0.0081,-0.007,-0.0066,-0.0064,0.0029,0.0029,0.0029,0,0,0,0,0,0,-0.0361,-0.0357,-0.0311,-0.0323,-0.0315,-0.0273,-0.0269,-0.0261,-0.0246,-0.0188,-0.0177,-0.0223,-0.013,-0.0118,-0.0081,-0.0076,-0.0065,-0.0061,0.0029,0.0029,0.0029,-0.0025,0,0,0,0,0,0,-0.0363,-0.0358,-0.0363,-0.0324,-0.0315,-0.0301,-0.0269,-0.026,-0.0245,-0.024,-0.018,-0.0168,-0.0129,-0.0087,-0.0077,-0.0071,-0.0058,0.0029,0.0029,0.0029,-0.0024,-0.0027,-0.003,0,0,0,0,0,-0.0364,-0.0377,-0.0363,-0.0359,-0.0322,-0.0302,-0.0295,-0.0262,-0.0245,-0.0245,-0.02,-0.017,-0.0078,-0.0084,-0.0072,-0.0064,0.0029,0.0029,0.0029,-0.0022,-0.0026,-0.003,0,0,0,0,0,0,-0.0399,-0.0372,-0.0356,-0.0359,-0.0336,-0.0294,-0.0292,-0.0268,-0.0233,-0.0228,-0.017,-0.0156,-0.0122,-0.0087,-0.0096,-0.0035,-0.0019,-0.0016,-0.0062,-0.0065,-0.0068,-0.0078,-0.0054,0,0,0,0,0,-0.041,-0.0412,-0.0378,-0.0381,-0.0373,-0.0333,-0.0322,-0.03,-0.0264,-0.0248,-0.0204,-0.0155,-0.0111,-0.0085,-0.0046,-0.0015,0.0028,-0.0001,-0.0004,-0.0007,-0.0006,0.0063,0.0066,0.0031,0.0031,0.0031,0,0,-0.0424,-0.041,-0.0409,-0.0389,-0.0367,-0.0363,-0.0325,-0.0314,-0.0303,-0.0241,-0.0214,-0.0168,-0.0107,-0.0071,-0.0052,-0.004,0.0024,-0.0006,-0.0009,-0.0007,0.0063,0.0067,0.007,0.0031,0.0031,0.0031,0,0,-0.0459,-0.044,-0.0456,-0.0441,-0.0419,-0.0391,-0.0392,-0.0353,-0.0328,-0.0299,-0.0248,-0.0199,-0.0141,-0.0089,-0.0055,-0.0051,0.0001,-0.0041,-0.0057,0.0009,0.0013,0.0016,0.0066,0.0075,-0.0037,-0.0037,-0.0037,0,-0.0478,-0.049,-0.0458,-0.0469,-0.0459,-0.0408,-0.0419,-0.0387,-0.0339,-0.0312,-0.03,-0.0192,-0.0146,-0.0081,-0.0079,-0.0057,-0.0018,-0.0051,0.0005,0.0009,0.0014,0.0065,0.0075,-0.004,-0.004,-0.0039,-0.0039,0,-0.0525,-0.0532,-0.054,-0.0533,-0.0517,-0.0518,-0.0472,-0.0448,-0.041,-0.0367,-0.0303,-0.0234,-0.0166,-0.0143,-0.0109,-0.005,-0.0033,-0.0013,0.0011,0.0014,0.0068,0.0079,-0.0044,-0.0043,-0.0042,-0.0041,0,0,-0.0572,-0.0575,-0.0576,-0.0582,-0.0551,-0.0543,-0.0518,-0.0474,-0.0446,-0.0389,-0.0343,-0.0263,-0.0215,-0.0174,-0.0118,-0.0058,0.0005,-0.0028,-0.0023,0.0017,0.0142,0.0162,0.0177,0.0035,0.0037,0.0038,0.0163,0,-0.0618,-0.0661,-0.0637,-0.0656,-0.0671,-0.061,-0.0588,-0.0536,-0.0476,-0.0419,-0.0328,-0.0268,-0.0229,-0.0193,-0.0127,-0.0023,0.0034,-0.0032,0.0139,0.0144,0.0157,0.0191,0.0155,0.0264,0.0175,0.0177,0.0178,0,-0.0671,-0.0691,-0.0732,-0.0716,-0.0713,-0.071,-0.065,-0.0622,-0.0522,-0.0471,-0.0388,-0.0314,-0.0211,-0.0186,-0.0009,-0.0053,0.0034,0.0111,0.0118,0.0165,0.0185,0.025,0.0289,0.0198,0.0196,0.0195,0.0194,0,-0.0731,-0.0748,-0.0784,-0.0783,-0.0762,-0.0753,-0.0726,-0.0643,-0.0605,-0.0501,-0.0455,-0.0327,-0.0249,-0.0127,0.003,0.0014,0.0223,0.0225,0.0324,0.0326,0.0344,0.0344,0.0342,0.0342,0.0342,0.0341,0.0341,0,-0.0792,-0.0814,-0.0819,-0.084,-0.086,-0.0814,-0.0798,-0.0747,-0.0659,-0.0599,-0.0491,-0.0406,-0.0229,-0.0087,0.0033,0.0222,0.0231,0.0332,0.0368,0.0322,0.032,0.03,0.0294,0.0346,0.0345,0.0344,0.0343,0,-0.0856,-0.0862,-0.0901,-0.0899,-0.0897,-0.0911,-0.0862,-0.0836,-0.0747,-0.0664,-0.0632,-0.0447,-0.0251,-0.0079,0.0147,0.0239,0.0405,0.0464,0.0391,0.0416,0.0456,0.0446,0.0585,0.0587,0.0589,0.059,0.0591,0,-0.0894,-0.0928,-0.0957,-0.0981,-0.0985,-0.0989,-0.098,-0.0898,-0.0855,-0.0675,-0.0634,-0.0427,-0.0253,0.0071,0.0267,0.0483,0.0476,0.056,0.0525,0.0465,0.0486,0.0472,0.046,0.0526,0.0526,0.0527,0.0527,0,-0.096,-0.0972,-0.1006,-0.1063,-0.1078,-0.1079,-0.1054,-0.1028,-0.0899,-0.0791,-0.0596,-0.044,-0.0125,0.0129,0.0387,0.0499,0.0518,0.0575,0.0564,0.0461,0.0417,0.0434,0.0422,0.0531,0.053,0.053,0.053,0.053,-0.0998,-0.1042,-0.1086,-0.1132,-0.1154,-0.1148,-0.1124,-0.1051,-0.0949,-0.0742,-0.0584,-0.0306,-0.0099,0.0297,0.0455,0.0594,0.0599,0.0621,0.0617,0.0613,0.0575,0.0536,0.0664,0.0664,0.0665,0.0665,0.0665,0,-0.1038,-0.1086,-0.1143,-0.1191,-0.1215,-0.1205,-0.115,-0.1086,-0.094,-0.073,-0.0503,-0.0203,0.008,0.029,0.0518,0.0644,0.0614,0.065,0.0582,0.0579,0.0575,0.0532,0.0612,0.0612,0.0612,0.0612,0,0,-0.1061,-0.113,-0.1162,-0.1222,-0.1247,-0.1229,-0.1183,-0.1069,-0.0915,-0.0663,-0.0432,-0.0155,0.0098,0.0248,0.0397,0.0508,0.0496,0.0507,0.0536,0.043,0.0424,0.0548,0.0477,0,0,0,0,0]}],[{"header":{"parameterUnit":"m.s-1","parameterCategory":2,"la1":30.2991,"la2":30.254,"lo1":-89.0895,"lo2":-89.0444,"dy":0.0017,"dx":0.0017,"nx":28,"ny":28,"refTime":"2025-04-30T21:00:00:Z","depth":"4","parameterNumber":2,"parameterNumberName":"U-component_of_CURRENTS"},"data":[0,0,0,0,0,0,0,0,0,0,0,0,0,0,0,0,0,0,0,0,0,0,0,0,0,0,0,0,0,0,0,0,0,0,0,0,0,0,0,0,0,0,0,0,0,0,0,0,0,0,0,0,0,0,0,0,0,0,-0.1593,-0.1593,0,-0.164,-0.1641,-0.1641,-0.1667,-0.1667,-0.1667,-0.1667,-0.169,-0.1691,-0.1691,0,0,0,0,0,0,0,0,0,0,0,0,0,-0.1519,-0.152,-0.1592,-0.1593,-0.1594,-0.164,-0.1641,-0.1641,-0.1667,-0.1667,-0.1667,-0.1667,-0.169,-0.1691,-0.1691,0,0,0,0,0,0,0,0,0,0,0,0,0,-0.1556,-0.1521,-0.1592,-0.1613,-0.1616,-0.164,-0.1641,-0.1641,-0.1667,-0.1667,-0.1667,-0.1667,-0.169,-0.1691,-0.1691,-0.1689,0,0,-0.1693,-0.1694,0,0,0,0,0,0,0,0,-0.1554,-0.1558,-0.161,-0.1612,-0.1615,-0.1649,-0.1624,-0.1657,-0.1666,-0.1646,-0.1667,-0.1668,-0.1675,-0.1677,-0.1683,-0.169,-0.1691,-0.1693,-0.1694,-0.1694,-0.1694,0,0,0,0,0,0,0,-0.1551,-0.1557,-0.161,-0.161,-0.1614,-0.1619,-0.1625,-0.163,-0.1656,-0.1647,-0.165,-0.1658,-0.1676,-0.1683,-0.1684,-0.1692,-0.1693,-0.1694,-0.1694,-0.1695,-0.1756,-0.1757,0,0,0,0,0,0,-0.1549,-0.1554,-0.1608,-0.1611,-0.1586,-0.162,-0.1626,-0.1637,-0.1657,-0.1661,-0.1657,-0.1659,-0.1681,-0.1683,-0.1685,-0.1741,-0.1694,-0.1695,-0.1695,-0.1755,-0.1756,-0.1758,0,0,0,0,0,0,-0.1547,-0.1553,-0.1606,-0.1585,-0.1592,-0.1622,-0.1633,-0.1637,-0.1668,-0.1665,-0.1668,-0.1686,-0.1682,-0.1684,-0.1714,-0.1739,-0.1695,-0.1695,-0.1753,-0.1755,-0.1757,-0.1815,0,0,0,0,0,0,-0.1545,-0.1552,-0.157,-0.1585,-0.1593,-0.1637,-0.1633,-0.1638,-0.1672,-0.1675,-0.169,-0.1691,-0.1682,-0.1713,-0.1714,-0.1739,-0.1696,-0.1752,-0.1754,-0.1757,-0.1812,-0.1819,-0.1825,0,0,0,0,0,-0.1542,-0.1563,-0.1571,-0.1578,-0.1613,-0.1639,-0.1644,-0.1664,-0.1673,-0.1692,-0.1705,-0.1692,-0.1729,-0.1715,-0.1716,-0.1742,-0.1751,-0.1754,-0.1756,-0.1809,-0.1817,-0.1825,0,0,0,0,0,0,-0.1543,-0.1568,-0.1577,-0.1606,-0.1629,-0.1644,-0.1667,-0.168,-0.1706,-0.1715,-0.1709,-0.1712,-0.1746,-0.1738,-0.1722,-0.1767,-0.1737,-0.174,-0.1777,-0.1785,-0.1791,-0.1781,-0.1696,0,0,0,0,0,-0.155,-0.1573,-0.1595,-0.162,-0.1634,-0.1656,-0.1674,-0.1689,-0.1708,-0.1721,-0.1734,-0.1745,-0.1755,-0.1766,-0.1773,-0.1799,-0.1768,-0.1816,-0.1823,-0.1828,-0.1822,-0.1805,-0.1808,-0.1767,-0.1767,-0.1767,0,0,-0.1559,-0.1575,-0.159,-0.1622,-0.1642,-0.1666,-0.1668,-0.1704,-0.1728,-0.1718,-0.1764,-0.1772,-0.1768,-0.1797,-0.1811,-0.1796,-0.1824,-0.1832,-0.1837,-0.1827,-0.1808,-0.1812,-0.1815,-0.1769,-0.1769,-0.1768,0,0,-0.1575,-0.1603,-0.1623,-0.1645,-0.1681,-0.1694,-0.171,-0.1743,-0.1765,-0.1804,-0.1803,-0.1824,-0.185,-0.1847,-0.1847,-0.1893,-0.186,-0.1908,-0.1934,-0.1918,-0.1921,-0.1923,-0.1885,-0.1883,-0.1911,-0.1911,-0.1911,0,-0.1586,-0.161,-0.1634,-0.1658,-0.1679,-0.1708,-0.1733,-0.176,-0.1801,-0.1816,-0.1828,-0.1863,-0.1867,-0.1882,-0.1905,-0.1907,-0.1889,-0.1904,-0.1925,-0.1927,-0.1928,-0.1888,-0.1885,-0.1914,-0.1914,-0.1913,-0.1913,0,-0.1605,-0.1637,-0.1653,-0.1689,-0.1717,-0.1747,-0.1781,-0.1818,-0.1849,-0.1867,-0.1907,-0.1916,-0.193,-0.1944,-0.1942,-0.196,-0.1941,-0.1935,-0.1902,-0.1935,-0.1892,-0.1888,-0.1919,-0.1917,-0.1917,-0.1916,0,0,-0.159,-0.1654,-0.1661,-0.1682,-0.1736,-0.1756,-0.1806,-0.1843,-0.187,-0.1915,-0.194,-0.1971,-0.198,-0.1981,-0.1985,-0.1981,-0.1979,-0.1973,-0.1971,-0.1929,-0.1933,-0.1804,-0.1787,-0.1986,-0.1985,-0.1985,-0.1898,0,-0.1596,-0.1639,-0.1673,-0.1719,-0.1741,-0.1788,-0.1827,-0.187,-0.1906,-0.1941,-0.1957,-0.1986,-0.1993,-0.201,-0.2009,-0.1989,-0.1973,-0.2002,-0.1912,-0.1909,-0.1785,-0.1779,-0.1985,-0.1895,-0.1894,-0.1893,-0.1893,0,-0.1589,-0.1621,-0.1666,-0.1726,-0.1743,-0.1782,-0.184,-0.188,-0.1932,-0.1962,-0.1992,-0.2006,-0.2018,-0.202,-0.1986,-0.201,-0.1977,-0.1954,-0.195,-0.1802,-0.1771,-0.1856,-0.1885,-0.1885,-0.1886,-0.1886,-0.1887,0,-0.1538,-0.1609,-0.1644,-0.1666,-0.1744,-0.1781,-0.1827,-0.1888,-0.1915,-0.1977,-0.1993,-0.2014,-0.2017,-0.1997,-0.1957,-0.198,-0.1899,-0.1914,-0.1757,-0.1747,-0.1866,-0.1864,-0.1874,-0.1874,-0.1874,-0.1874,-0.1875,0,-0.1503,-0.1534,-0.1631,-0.1648,-0.1691,-0.1763,-0.1812,-0.1861,-0.1923,-0.1931,-0.2,-0.1985,-0.2016,-0.1976,-0.1948,-0.1821,-0.1882,-0.1743,-0.1712,-0.1892,-0.1895,-0.1862,-0.1862,-0.1871,-0.1872,-0.1872,-0.1873,0,-0.1425,-0.1495,-0.1536,-0.1633,-0.1667,-0.1698,-0.1793,-0.1814,-0.1895,-0.1904,-0.1923,-0.196,-0.1901,-0.1892,-0.1837,-0.1775,-0.1692,-0.1631,-0.1803,-0.1786,-0.1556,-0.1561,-0.1446,-0.144,-0.1436,-0.1432,-0.1429,0,-0.1382,-0.1399,-0.1503,-0.1529,-0.1576,-0.1643,-0.1677,-0.1782,-0.1793,-0.1852,-0.1827,-0.1818,-0.1817,-0.1615,-0.1646,-0.1555,-0.1541,-0.1493,-0.1547,-0.1529,-0.1511,-0.1522,-0.1532,-0.1421,-0.142,-0.1419,-0.1418,0,-0.1287,-0.1341,-0.1373,-0.1425,-0.1474,-0.1513,-0.1572,-0.1568,-0.1658,-0.1749,-0.1666,-0.1625,-0.1548,-0.1502,-0.1435,-0.1382,-0.1529,-0.1446,-0.1456,-0.1506,-0.1498,-0.1487,-0.1503,-0.1402,-0.1404,-0.1406,-0.1407,0,-0.1211,-0.121,-0.1262,-0.129,-0.135,-0.1351,-0.1407,-0.1406,-0.1433,-0.1511,-0.1471,-0.1466,-0.1509,-0.1407,-0.1348,-0.1282,-0.1274,-0.1244,-0.1265,-0.1283,-0.1273,-0.1242,-0.1019,0,0,0,0,0,-0.1121,-0.1103,-0.112,-0.1139,-0.1193,-0.122,-0.1311,-0.137,-0.146,-0.1351,-0.1408,-0.1329,-0.1245,-0.1254,-0.1149,-0.1284,-0.1287,-0.116,-0.1268,-0.1314,-0.1332,-0.1339,0,0,0,0,0,0,-0.106,-0.1068,-0.1066,-0.1003,-0.0985,-0.1019,-0.107,-0.114,-0.1095,-0.1193,-0.1146,-0.1227,-0.116,-0.1251,-0.1104,-0.1108,-0.1146,-0.1176,-0.1172,-0.1304,-0.132,-0.1335,-0.1348,0,0,0,0,0]},{"header":{"parameterUnit":"m.s-1","parameterCategory":2,"la1":30.2991,"la2":30.254,"lo1":-89.0895,"lo2":-89.0444,"dy":0.0017,"dx":0.0017,"nx":28,"ny":28,"refTime":"2025-04-30T21:00:00:Z","depth":"4","parameterNumber":3,"parameterNumberName":"V-component_of_CURRENTS"},"data":[0,0,0,0,0,0,0,0,0,0,0,0,0,0,0,0,0,0,0,0,0,0,0,0,0,0,0,0,0,0,0,0,0,0,0,0,0,0,0,0,0,0,0,0,0,0,0,0,0,0,0,0,0,0,0,0,0,0,-0.0263,-0.0263,0,-0.0225,-0.0224,-0.0224,-0.0193,-0.0193,-0.0192,-0.0192,-0.0129,-0.0128,-0.0126,0,0,0,0,0,0,0,0,0,0,0,0,0,-0.0293,-0.0293,-0.0263,-0.0263,-0.0262,-0.0225,-0.0224,-0.0224,-0.0193,-0.0193,-0.0192,-0.0192,-0.013,-0.0128,-0.0126,0,0,0,0,0,0,0,0,0,0,0,0,0,-0.027,-0.0293,-0.0263,-0.0243,-0.0241,-0.0225,-0.0224,-0.0224,-0.0193,-0.0193,-0.0192,-0.0192,-0.013,-0.0128,-0.0126,-0.012,0,0,-0.0119,-0.0118,0,0,0,0,0,0,0,0,-0.0271,-0.0268,-0.0246,-0.0244,-0.0242,-0.0214,-0.0212,-0.0188,-0.0193,-0.021,-0.0192,-0.0192,-0.0156,-0.0152,-0.0145,-0.0117,-0.0115,-0.0119,-0.0118,-0.0117,-0.0116,0,0,0,0,0,0,0,-0.0273,-0.027,-0.0247,-0.0246,-0.0243,-0.023,-0.0226,-0.0207,-0.0185,-0.0209,-0.0207,-0.0204,-0.0154,-0.0147,-0.0143,-0.0114,-0.0119,-0.0117,-0.0116,-0.0115,-0.0083,-0.0083,0,0,0,0,0,0,-0.028,-0.0271,-0.0249,-0.0246,-0.0256,-0.023,-0.0226,-0.0223,-0.0185,-0.018,-0.0204,-0.0202,-0.0151,-0.0145,-0.014,-0.0136,-0.0117,-0.0115,-0.0114,-0.0082,-0.0083,-0.0083,0,0,0,0,0,0,-0.0281,-0.0278,-0.025,-0.0258,-0.0254,-0.023,-0.0227,-0.0222,-0.0218,-0.0182,-0.0176,-0.0205,-0.015,-0.0144,-0.0129,-0.0133,-0.0114,-0.0112,-0.0082,-0.0083,-0.0083,-0.0125,0,0,0,0,0,0,-0.0282,-0.0279,-0.0284,-0.0259,-0.0254,-0.025,-0.0227,-0.0222,-0.0217,-0.0215,-0.0181,-0.0175,-0.0149,-0.0133,-0.0127,-0.013,-0.011,-0.0081,-0.0082,-0.0083,-0.0123,-0.0127,-0.013,0,0,0,0,0,-0.0283,-0.0292,-0.0284,-0.0282,-0.026,-0.0251,-0.0247,-0.0228,-0.0218,-0.0222,-0.0197,-0.0176,-0.0134,-0.0131,-0.0125,-0.0127,-0.0081,-0.0082,-0.0083,-0.0121,-0.0126,-0.013,0,0,0,0,0,0,-0.0306,-0.0289,-0.028,-0.0283,-0.0272,-0.0246,-0.0249,-0.0235,-0.0219,-0.0218,-0.0181,-0.0173,-0.0163,-0.0142,-0.014,-0.0121,-0.0104,-0.0104,-0.0135,-0.014,-0.0143,-0.0145,-0.0108,0,0,0,0,0,-0.0315,-0.0318,-0.0298,-0.0301,-0.0298,-0.0276,-0.0271,-0.0259,-0.024,-0.0232,-0.0208,-0.0183,-0.0162,-0.0149,-0.013,-0.0119,-0.0083,-0.0117,-0.012,-0.0123,-0.0121,-0.0064,-0.0062,-0.0087,-0.0087,-0.0087,0,0,-0.0324,-0.0316,-0.0317,-0.0307,-0.0297,-0.0301,-0.0272,-0.0271,-0.0272,-0.0228,-0.0225,-0.0198,-0.0164,-0.0152,-0.0145,-0.0133,-0.0101,-0.0125,-0.0128,-0.0123,-0.0065,-0.0062,-0.006,-0.0087,-0.0087,-0.0087,0,0,-0.0351,-0.0339,-0.0354,-0.035,-0.0342,-0.0326,-0.0329,-0.0309,-0.0298,-0.0291,-0.0258,-0.0231,-0.0207,-0.0175,-0.0157,-0.0169,-0.0125,-0.0169,-0.0183,-0.0128,-0.0125,-0.0122,-0.0084,-0.0077,-0.0166,-0.0166,-0.0166,0,-0.0366,-0.0379,-0.0358,-0.0373,-0.0373,-0.0341,-0.0357,-0.0342,-0.032,-0.0306,-0.0299,-0.0242,-0.0215,-0.0181,-0.0187,-0.0176,-0.0143,-0.0169,-0.0131,-0.0127,-0.0123,-0.0085,-0.0077,-0.0168,-0.0168,-0.0168,-0.0168,0,-0.0404,-0.0417,-0.0426,-0.0432,-0.0428,-0.0437,-0.0413,-0.0406,-0.0387,-0.0362,-0.033,-0.0286,-0.0247,-0.0237,-0.0215,-0.0177,-0.0164,-0.0145,-0.0119,-0.0123,-0.0083,-0.0073,-0.0171,-0.0171,-0.017,-0.0169,0,0,-0.0431,-0.0451,-0.0455,-0.0469,-0.0461,-0.0461,-0.046,-0.0441,-0.043,-0.0399,-0.0375,-0.0331,-0.0294,-0.0271,-0.0233,-0.0184,-0.0134,-0.0158,-0.0154,-0.0118,-0.0021,-0.0039,-0.003,-0.0106,-0.0104,-0.0103,-0.0008,0,-0.047,-0.0517,-0.0508,-0.0541,-0.056,-0.0528,-0.0527,-0.0503,-0.0468,-0.0436,-0.0374,-0.0341,-0.031,-0.0288,-0.0235,-0.0157,-0.011,-0.0162,-0.0024,-0.002,-0.0032,-0.002,-0.0098,-0.0,0.0002,0.0003,0.0004,0,-0.0511,-0.0537,-0.0586,-0.0596,-0.0599,-0.0611,-0.0589,-0.0581,-0.0522,-0.049,-0.0433,-0.0381,-0.0308,-0.0284,-0.0145,-0.018,-0.0108,-0.0047,-0.0041,-0.0035,-0.002,0.0009,0.0022,0.002,0.0019,0.0018,0.0017,0,-0.0548,-0.0585,-0.0627,-0.0634,-0.0643,-0.0652,-0.0647,-0.0603,-0.0585,-0.052,-0.0492,-0.0397,-0.0343,-0.0241,-0.012,-0.0127,0.0033,0.0043,0.0094,0.0093,0.01,0.0096,0.014,0.014,0.0139,0.0139,0.0139,0,-0.0589,-0.0621,-0.0654,-0.0679,-0.0716,-0.0699,-0.071,-0.0684,-0.0635,-0.0601,-0.0525,-0.047,-0.0327,-0.022,-0.012,0.0015,0.0038,0.0096,0.0122,0.0077,0.0069,0.0106,0.0101,0.0143,0.0142,0.0141,0.0141,0,-0.0622,-0.0647,-0.0698,-0.0729,-0.0741,-0.0767,-0.0765,-0.0758,-0.0708,-0.066,-0.0641,-0.051,-0.0367,-0.0231,-0.0049,0.0016,0.0143,0.0183,0.0117,0.0136,0.0164,0.0156,0.025,0.0251,0.0251,0.0251,0.0251,0,-0.0642,-0.0678,-0.0741,-0.0776,-0.0797,-0.0829,-0.0843,-0.0806,-0.0783,-0.0675,-0.0648,-0.0507,-0.041,-0.0164,-0.0033,0.0151,0.0172,0.0225,0.02,0.0162,0.0178,0.0169,0.0161,0.0251,0.0252,0.0252,0.0252,0,-0.0675,-0.0705,-0.0747,-0.0824,-0.0864,-0.0891,-0.0901,-0.0885,-0.0815,-0.0777,-0.0626,-0.049,-0.0328,-0.015,-0.0011,0.0119,0.0183,0.0228,0.0228,0.0205,0.0165,0.0178,0.017,0.0252,0.0252,0.0252,0.0252,0,-0.0693,-0.0733,-0.0793,-0.0851,-0.0909,-0.0927,-0.093,-0.0877,-0.0839,-0.0708,-0.0656,-0.0473,-0.0356,-0.0166,-0.0035,0.0085,0.0111,0.0137,0.0142,0.0143,0.0074,0.0006,0.0073,0,0,0,0,0,-0.0701,-0.0745,-0.0809,-0.0871,-0.0927,-0.0949,-0.0951,-0.0933,-0.0868,-0.0762,-0.0698,-0.054,-0.031,-0.0209,-0.0088,-0.0061,0.0103,0.0079,0.0127,0.0257,0.0256,0.0191,0,0,0,0,0,0,-0.0708,-0.0774,-0.0807,-0.0869,-0.0908,-0.0952,-0.0951,-0.0907,-0.0834,-0.075,-0.0623,-0.0531,-0.0313,-0.0374,-0.0089,-0.0052,-0.0011,0.0193,0.0194,0.0258,0.0257,0.0256,0.0189,0,0,0,0,0]}]]